This is the latest recevied weather packets stored in our database for station/object AI5KP-13. If no packets are shown the sender has not sent any weather packets the latest 1 day(s).
| Time | Temp. | Humidity | Pressure | Rain* | Wind** | Luminosity | Snow |
|---|---|---|---|---|---|---|---|
| 1778049184 | 8.89° C | 92% | 1010.8 hPa | 0 mm | 4.02 m/s, 11° | 0 W/m² | - |
| 1778048883 | 8.89° C | 92% | 1011 hPa | 0 mm | 1.79 m/s, 29° | 0 W/m² | - |
| 1778048580 | 8.89° C | 92% | 1011.3 hPa | 0 mm | 0.45 m/s, 56° | 0 W/m² | - |
| 1778048275 | 8.89° C | 92% | 1012.1 hPa | 0 mm | 1.34 m/s, 20° | 0 W/m² | - |
| 1778047973 | 8.89° C | 93% | 1011.5 hPa | 0 mm | 0.45 m/s, 113° | 0 W/m² | - |
| 1778047671 | 8.89° C | 93% | 1011.1 hPa | 0 mm | 0.89 m/s, 32° | 0 W/m² | - |
| 1778047368 | 8.89° C | 93% | 1011.4 hPa | 0 mm | 2.68 m/s, 52° | 0 W/m² | - |
| 1778047065 | 8.89° C | 93% | 1011.4 hPa | 0 mm | 0.89 m/s, 21° | 0 W/m² | - |
| 1778046761 | 8.89° C | 93% | 1011.5 hPa | 0 mm | 1.79 m/s, 50° | 0 W/m² | - |
| 1778046459 | 8.89° C | 94% | 1011.5 hPa | 0 mm | 1.34 m/s, 31° | 0 W/m² | - |
| 1778046155 | 8.89° C | 93% | 1011.7 hPa | 0 mm | 2.24 m/s, 352° | 0 W/m² | - |
| 1778045852 | 9.44° C | 93% | 1011.6 hPa | 0 mm | 0.89 m/s, 29° | 0 W/m² | - |
| 1778045551 | 9.44° C | 91% | 1011.7 hPa | 0 mm | 0.89 m/s, 30° | 0 W/m² | - |
| 1778045248 | 9.44° C | 91% | 1011.2 hPa | 0 mm | 1.34 m/s, 43° | 0 W/m² | - |
| 1778044947 | 9.44° C | 92% | 1011.4 hPa | 0 mm | 0.89 m/s, 56° | 0 W/m² | - |
| 1778044644 | 9.44° C | 92% | 1011.4 hPa | 0 mm | 1.79 m/s, 50° | 0 W/m² | - |
| 1778044340 | 9.44° C | 93% | 1011.2 hPa | 0 mm | 1.34 m/s, 31° | 0 W/m² | - |
| 1778044038 | 9.44° C | 93% | 1011.4 hPa | 0 mm | 1.34 m/s, 56° | 0 W/m² | - |
| 1778043735 | 8.89° C | 94% | 1011.1 hPa | 0 mm | 1.34 m/s, 24° | 0 W/m² | - |
| 1778043432 | 8.89° C | 94% | 1010.9 hPa | 0 mm | 2.24 m/s, 15° | 0 W/m² | - |
| 1778043128 | 8.89° C | 94% | 1010.9 hPa | 0 mm | 0.89 m/s, 10° | 0 W/m² | - |
| 1778042826 | 8.89° C | 94% | 1011 hPa | 0 mm | 1.79 m/s, 26° | 0 W/m² | - |
| 1778042523 | 8.89° C | 94% | 1011 hPa | 0 mm | 0.45 m/s, 51° | 0 W/m² | - |
| 1778042220 | 8.89° C | 94% | 1011 hPa | 0 mm | 1.34 m/s, 29° | 0 W/m² | - |
| 1778041918 | 8.89° C | 94% | 1011 hPa | 0 mm | 1.79 m/s, 323° | 0 W/m² | - |
* Rain latest hour (hover to see other rain measurements)
** Current wind speed in m/s (hover to see current wind gust speed)